Location: Unspecified
(49.2170°N, 0.0000°E)
Time: 16:04:22
(UTC+00:00)

Vanguard 1 - Pass Details

Date: 19 June 2021
Orbit: 651 x 3832 km, 34.2° (Epoch: 23 July)

Event Time Altitude Azimuth Distance (km) Brightness Sun altitude
Rises 21:44:09 0° 237° (WSW) 7,952 14.7 -11.2°
Reaches altitude 10° 21:50:02 10° 232° (SW) 6,922 14.3 -11.7°
Maximum altitude 22:10:25 45° 170° (S) 3,921 12.6 -13.2°
Drops below altitude 10° 22:24:11 10° 104° (ESE) 4,817 13.2 -14.2°
Sets 22:27:24 0° 98° (E) 5,456 13.6 -14.4°
